Vertical_Velocity
4 -0 2 2 -1 0 0 1 4 7 3 18 4 -2 -2 -1 0 4 2 -2 1 -2 -1 -2 0 0 -3 -3 1 -3 3 2 0 1 4 -2 -0 -1 -1 0 -1 1 1
-1 4 0 -0 1 -1 -0 -2 1 1 -3 5 -1 -0 1 2 -2 -1 -2 -1 2 2 4 -1 -3 -1 2 -0 3 -0 -0 1 1 -1 -1 -0 -1 -4 -0 1 2 1 -2
-1 2 -1 -1 -5 -1 2 5 -5 -35 4 7 1 1 2 0 -0 -1 -1 2 3 1 -2 1 -0 1 -2 2 -2 0 -3 -3 -4 -1 -2 1 -2 2 0 -1 1 0 1
3 0 3 0 -1 3 6 -1 2 9 6 -0 -0 -1 1 -0 -3 0 3 2 1 0 -1 -1 -1 -2 -4 -2 -0 -2 -2 -1 -2 1 -1 2 -1 -1 -3 0 1 0 -3
1 3 2 -1 -1 -2 2 -17 2 2 -3 0 3 2 -0 -2 1 2 5 -2 -1 -1 -1 1 2 -3 -2 -0 -0 1 -2 -3 0 3 3 -1 -3 -1 0 -3 -0 5 8
-2 2 -4 -4 2 -10 -11 3 1 -2 -0 2 -1 -0 -2 1 3 1 1 -4 -0 -2 0 0 -2 -0 -1 -1 -1 -1 -0 -1 -2 -1 -0 4 3 -1 -0 -4 -10 -4 -4
-3 1 -0 1 2 -1 2 1 1 1 -3 -3 -1 -1 1 0 2 -1 -3 -4 0 -1 2 -0 -2 -0 -1 -2 -0 1 1 0 -1 -1 1 2 -0 -2 -7 -3 4 0 1
-1 -1 -4 -0 2 -1 -3 -1 -0 -2 1 -1 2 0 1 -0 -1 -3 -2 1 -1 3 -0 -3 -1 -2 -2 2 -2 1 1 1 1 1 1 -1 -1 0 -0 -0 -0 -0 -2
0 3 5 0 -1 -1 1 -1 0 -1 -1 3 2 1 1 1 -1 -3 1 -1 0 -2 -2 -2 -3 -2 -1 -1 0 -2 -2 -2 -1 0 -1 -3 -1 0 -2 -2 -1 -4 -6
-4 -6 -3 -3 1 -0 -2 1 1 -1 2 0 1 1 -0 1 -2 1 -2 -1 -1 -1 -1 -2 -1 -1 -2 -1 -0 -2 0 -2 -3 -2 -1 -0 -0 -2 -4 3 2 0 3
4 3 -0 -1 1 -0 2 1 -0 0 2 -1 -0 1 -1 -1 -0 -1 -2 0 -2 1 -1 -2 -1 -1 -1 -0 -2 -1 -3 -3 -1 2 1 1 1 -2 1 -2 -5 1 2
-4 1 2 -1 -2 -0 -1 -0 -2 1 -1 -3 0 -1 -1 -1 0 -1 0 -1 -2 1 -3 -0 -2 0 -0 -4 -2 -0 0 -0 -1 -3 -2 -3 -5 -3 -5 -3 1 -2 -1
-1 0 -1 -2 -2 -1 -2 1 -1 1 -2 -1 0 0 -1 -3 1 -1 -2 -1 0 -2 -3 -1 -3 -2 -4 -5 -4 -3 2 1 -3 1 -2 -4 -1 1 3 -0 -0 -2 -2
1 -2 -1 -1 -2 -2 -1 -3 -1 1 -1 0 0 -1 -2 -1 -0 -3 -2 -1 -2 -2 -2 -3 -1 -3 -4 -4 -1 -2 -5 -9 -3 -6 2 -1 -5 -3 -3 -5 -1 1 -3
-1 -3 -2 -3 -1 -1 -1 0 -3 -1 -0 -1 0 -2 -2 0 -3 -4 -2 -2 -3 -2 -3 -5 -8 -7 0 -1 -9 -6 -5 -1 2 -2 -2 -1 -2 2 2 -3 -3 1 5
1 -2 -2 -2 -2 -1 -2 2 1 -2 -1 -2 -3 2 0 -1 -1 -1 -3 -4 -3 -2 -4 -4 -1 -0 -2 -6 4 9 -0 -16 -5 -3 -3 1 0 -0 2 -2 -3 -4 1
2 2 1 -1 -2 -1 -0 -1 0 4 -2 0 -2 -1 -2 0 -1 3 1 -0 -5 -3 2 0 -1 -0 2 -2 2 8 0 1 -4 -9 -6 -8 -5 -2 -5 -2 5 6 -2
-1 1 -1 -1 -0 -2 -2 -1 -0 -0 4 2 0 2 1 0 0 1 0 -4 -4 0 2 2 2 -2 -2 -4 2 -5 1 3 3 -1 -5 1 2 2 5 1 -1 -3 3
2 1 1 2 1 -0 -2 -2 -0 -2 -2 -0 -0 -1 -1 0 1 -3 -7 -2 -0 -0 3 1 0 5 -1 -1 0 5 0 0 -1 0 1 -1 2 3 1 1 -2 -2 -1
0 3 3 4 -2 1 -2 -2 -1 -1 -1 -3 -5 4 -0 -3 -1 2 1 -0 2 4 4 5 3 1 1 -1 -2 2 3 1 4 -5 -2 1 -5 1 2 -3 -2 1 1
3 -0 6 0 -6 1 0 -1 1 -3 -3 -1 1 1 5 1 0 -1 -1 0 4 5 3 5 7 6 1 -1 -1 1 5 -2 -1 -2 -1 -1 1 -1 2 6 3 0 2
-4 6 -2 -2 10 -10 -1 2 -1 -1 -2 -2 3 -3 7 -2 -6 -2 -1 2 6 6 6 7 8 8 6 2 -1 -3 2 8 8 6 -0 -1 -2 -12 -7 1 1 1 3
-0 3 -3 -12 -9 6 -3 -4 -4 -2 0 -2 -1 -0 1 3 -1 -3 4 4 2 0 2 1 5 6 4 2 -5 2 4 4 3 2 2 -2 -0 -2 4 8 -3 -3 -5
-6 8 2 -4 3 -7 1 -1 -0 -0 1 -1 -3 -5 2 4 9 9 5 -1 -2 -3 4 6 2 0 -0 -3 3 5 9 11 7 10 6 5 8 -3 4 0 -3 -3 4
5 7 -6 -4 -4 -2 4 -5 -3 -1 -3 -1 -1 -3 -6 2 9 12 6 7 6 -4 3 0 4 6 2 -9 1 7 10 11 9 6 7 8 9 4 7 13 6 -1 -2
1 0 -2 2 -5 -7 7 -3 -11 -2 -4 0 2 0 -12 -7 5 6 4 7 4 -1 4 5 1 -6 2 6 5 5 3 5 10 7 3 9 11 7 3 16 8 -2 -3
Height
3178 3180 3183 3187 3192 3196 3199 3202 3204 3207 3210 3212 3213 3215 3216 3216 3216 3218 3217 3216 3216 3217 3216 3216 3216 3215 3212 3211 3210 3207 3207 3206 3204 3202 3200 3198 3196 3194 3193 3191 3189 3185 3182
3180 3181 3184 3187 3192 3195 3200 3203 3205 3207 3206 3210 3212 3213 3214 3214 3214 3215 3215 3214 3215 3216 3216 3216 3215 3214 3212 3210 3208 3206 3204 3204 3203 3201 3199 3197 3196 3193 3192 3190 3187 3184 3181
3184 3185 3188 3191 3194 3198 3201 3203 3205 3201 3203 3210 3211 3211 3211 3212 3212 3213 3214 3214 3214 3215 3215 3215 3214 3213 3211 3210 3208 3205 3203 3203 3201 3200 3199 3198 3195 3193 3189 3183 3180 3177 3177
3187 3189 3191 3193 3196 3198 3201 3203 3206 3206 3207 3208 3208 3209 3210 3211 3211 3211 3214 3213 3214 3214 3215 3215 3213 3211 3209 3208 3207 3204 3203 3201 3200 3200 3198 3196 3193 3191 3188 3185 3181 3177 3173
3189 3191 3192 3194 3197 3198 3202 3201 3203 3205 3206 3206 3206 3208 3209 3209 3210 3211 3213 3212 3213 3213 3214 3213 3212 3211 3209 3207 3206 3204 3203 3202 3200 3197 3195 3194 3191 3189 3186 3183 3181 3180 3176
3189 3191 3193 3195 3198 3200 3200 3201 3202 3204 3204 3204 3205 3206 3207 3209 3211 3211 3212 3212 3212 3213 3212 3212 3212 3210 3208 3206 3205 3203 3202 3199 3197 3196 3194 3192 3190 3187 3185 3182 3180 3179 3176
3187 3189 3192 3194 3196 3197 3198 3200 3201 3202 3203 3203 3204 3205 3207 3208 3210 3210 3211 3211 3213 3213 3211 3211 3211 3209 3208 3206 3204 3203 3201 3198 3197 3195 3193 3191 3188 3186 3184 3181 3178 3177 3175
3184 3188 3190 3192 3195 3197 3197 3199 3200 3201 3201 3202 3204 3205 3207 3208 3209 3210 3211 3211 3212 3211 3211 3211 3210 3208 3207 3205 3202 3201 3200 3197 3195 3192 3190 3189 3186 3184 3181 3178 3177 3175 3172
3183 3186 3188 3191 3192 3193 3195 3197 3198 3199 3200 3202 3203 3205 3206 3207 3209 3210 3210 3210 3210 3210 3210 3209 3208 3207 3206 3205 3204 3201 3198 3195 3193 3191 3188 3186 3183 3181 3179 3177 3173 3170 3168
3181 3184 3186 3188 3189 3191 3193 3194 3196 3198 3200 3202 3204 3204 3206 3208 3208 3208 3208 3209 3209 3209 3209 3209 3208 3208 3207 3204 3202 3200 3196 3194 3191 3189 3187 3184 3182 3180 3177 3175 3172 3170 3167
3180 3182 3184 3186 3188 3189 3191 3193 3195 3197 3200 3201 3202 3204 3206 3206 3207 3207 3208 3209 3209 3210 3209 3209 3209 3207 3206 3204 3202 3199 3195 3193 3190 3187 3184 3182 3179 3177 3176 3173 3171 3168 3165
3178 3181 3183 3184 3186 3187 3189 3191 3193 3196 3198 3200 3201 3203 3204 3205 3206 3207 3208 3209 3209 3209 3209 3210 3208 3206 3206 3205 3201 3197 3193 3191 3188 3185 3181 3177 3175 3174 3172 3170 3167 3165 3163
3175 3178 3181 3182 3184 3185 3187 3189 3192 3194 3196 3198 3200 3202 3204 3205 3205 3207 3208 3209 3210 3210 3209 3208 3207 3206 3205 3203 3199 3195 3192 3189 3185 3183 3179 3176 3173 3172 3170 3168 3165 3163 3161
3172 3175 3178 3180 3181 3183 3185 3188 3190 3192 3194 3197 3199 3201 3203 3205 3206 3207 3208 3208 3208 3208 3208 3208 3206 3204 3202 3201 3197 3193 3190 3187 3184 3180 3177 3174 3171 3168 3166 3163 3160 3157 3155
3171 3172 3174 3177 3179 3180 3183 3186 3188 3190 3192 3193 3196 3199 3202 3204 3205 3206 3206 3206 3206 3205 3205 3204 3203 3201 3200 3198 3194 3191 3188 3184 3179 3177 3175 3171 3167 3164 3162 3159 3156 3154 3152
3169 3170 3172 3174 3176 3178 3180 3183 3185 3187 3189 3190 3193 3196 3198 3201 3202 3203 3203 3203 3202 3202 3202 3200 3199 3198 3196 3195 3192 3189 3186 3182 3176 3175 3171 3167 3165 3162 3158 3155 3152 3149 3147
3165 3168 3169 3171 3173 3175 3177 3180 3182 3184 3185 3187 3190 3193 3195 3197 3198 3198 3199 3198 3198 3198 3197 3196 3195 3193 3193 3192 3190 3186 3183 3179 3175 3173 3169 3165 3160 3158 3156 3153 3149 3146 3144
3161 3164 3166 3168 3170 3172 3174 3176 3178 3179 3181 3183 3186 3189 3191 3192 3193 3194 3194 3193 3193 3192 3192 3192 3190 3189 3188 3186 3185 3182 3178 3176 3173 3170 3165 3159 3158 3156 3153 3149 3145 3144 3142
3155 3158 3161 3163 3164 3167 3169 3170 3172 3174 3176 3178 3179 3182 3184 3187 3188 3188 3188 3188 3187 3186 3186 3186 3185 3185 3184 3182 3179 3177 3173 3173 3171 3167 3163 3160 3157 3154 3150 3146 3143 3141 3139
3147 3151 3154 3157 3159 3161 3163 3164 3167 3169 3171 3173 3174 3176 3178 3180 3181 3182 3182 3182 3181 3181 3180 3180 3180 3179 3178 3176 3173 3171 3169 3166 3166 3163 3161 3157 3154 3150 3146 3141 3138 3136 3134
3138 3141 3146 3148 3151 3154 3156 3159 3161 3163 3165 3167 3169 3170 3173 3173 3174 3175 3175 3174 3174 3174 3174 3173 3172 3171 3170 3169 3167 3166 3164 3162 3159 3157 3154 3151 3149 3143 3141 3138 3135 3132 3130
3128 3132 3136 3140 3143 3145 3149 3152 3154 3156 3158 3159 3161 3162 3165 3165 3166 3167 3166 3166 3167 3167 3166 3165 3165 3164 3162 3160 3159 3157 3156 3155 3153 3150 3146 3144 3141 3138 3134 3132 3130 3128 3126
3119 3124 3128 3132 3134 3136 3139 3143 3145 3148 3150 3152 3153 3154 3156 3158 3159 3158 3159 3160 3159 3158 3157 3155 3155 3155 3154 3152 3151 3148 3147 3146 3145 3142 3139 3138 3136 3131 3127 3123 3120 3120 3120
3110 3117 3121 3123 3125 3127 3129 3132 3136 3140 3142 3144 3145 3146 3147 3149 3150 3152 3152 3152 3151 3149 3147 3145 3145 3145 3144 3143 3142 3141 3141 3139 3137 3134 3132 3130 3128 3125 3119 3115 3112 3111 3111
3107 3111 3111 3114 3115 3117 3120 3121 3125 3129 3132 3134 3135 3136 3137 3138 3140 3142 3143 3142 3142 3140 3139 3136 3134 3134 3134 3134 3133 3134 3132 3128 3127 3125 3122 3121 3121 3117 3112 3107 3106 3104 3103
3099 3101 3103 3104 3105 3108 3113 3110 3113 3117 3121 3123 3125 3126 3126 3127 3128 3132 3133 3133 3132 3131 3130 3129 3127 3125 3123 3124 3123 3122 3121 3120 3117 3115 3113 3111 3111 3108 3104 3100 3097 3097 3096